Location: McFarlands Corners
(41.4117°N, 81.3382°W)
Time: 14:44:37
(UTC+00:00)

Transit 2A - Pass Details

Date: 23 February 2026
Orbit: 590 x 954 km, 66.7° (Epoch: 7 March)

Event Time Altitude Azimuth Distance (km) Brightness Sun altitude
Rises 00:30:11 0° 336° (NNW) 3,573 9.8 -16.1°
Reaches altitude 10° 00:33:12 10° 348° (NNW) 2,584 8.9 -16.7°
Maximum altitude 00:38:16 28° 45° (NE) 1,566 7.2 -17.7°
Enters shadow 00:39:20 26° 64° (ENE) 1,605 7.2 -17.9°
